TimeCDT,TemperatureF,Dew PointF,Humidity,Sea Level PressureIn,VisibilityMPH,Wind Direction,Wind SpeedMPH,Gust SpeedMPH,PrecipitationIn,Events,Conditions,WindDirDegrees,DateUTC
12:53 AM,73.0,66.0,79,29.95,10.0,South,13.8,23.0,N/A,,Clear,180,2012-10-22 05:53:00
1:53 AM,72.0,66.9,84,29.95,10.0,South,12.7,20.7,N/A,,Overcast,170,2012-10-22 06:53:00
2:53 AM,72.0,66.9,84,29.95,10.0,South,15.0,-,N/A,,Overcast,180,2012-10-22 07:53:00
3:53 AM,72.0,66.9,84,29.96,10.0,South,10.4,-,N/A,,Mostly Cloudy,170,2012-10-22 08:53:00
4:00 AM,71.6,66.2,83,29.98,10.0,South,11.5,-,N/A,,Mostly Cloudy,170,2012-10-22 09:00:00
4:29 AM,71.6,66.2,83,29.98,10.0,South,10.4,-,N/A,,Scattered Clouds,170,2012-10-22 09:29:00
4:53 AM,71.1,66.9,87,29.96,10.0,South,13.8,-,N/A,,Partly Cloudy,170,2012-10-22 09:53:00
5:53 AM,71.1,66.9,87,29.97,10.0,South,11.5,-,N/A,,Clear,170,2012-10-22 10:53:00
6:51 AM,71.6,66.2,83,30.02,10.0,South,11.5,-,N/A,,Overcast,170,2012-10-22 11:51:00
6:53 AM,71.1,66.9,87,30.00,10.0,South,12.7,-,N/A,,Overcast,170,2012-10-22 11:53:00
7:53 AM,71.1,66.9,87,30.01,10.0,South,9.2,-,N/A,,Overcast,170,2012-10-22 12:53:00
8:53 AM,73.0,66.9,81,30.02,10.0,South,13.8,-,N/A,,Overcast,170,2012-10-22 13:53:00
9:53 AM,73.9,68.0,82,30.03,10.0,South,13.8,-,N/A,,Overcast,170,2012-10-22 14:53:00
10:25 AM,75.2,68.0,78,30.05,10.0,South,11.5,-,N/A,,Overcast,170,2012-10-22 15:25:00
10:53 AM,77.0,68.0,74,30.03,10.0,South,12.7,-,N/A,,Mostly Cloudy,170,2012-10-22 15:53:00
11:53 AM,77.0,68.0,74,30.04,10.0,South,11.5,18.4,N/A,,Overcast,180,2012-10-22 16:53:00
12:49 PM,78.8,68.0,69,30.05,10.0,SSW,13.8,-,N/A,,Overcast,200,2012-10-22 17:49:00
12:53 PM,79.0,66.9,66,30.03,10.0,South,13.8,-,N/A,,Overcast,190,2012-10-22 17:53:00
1:15 PM,82.4,66.2,58,30.03,10.0,South,16.1,20.7,N/A,,Mostly Cloudy,190,2012-10-22 18:15:00
1:24 PM,80.6,66.2,61,30.02,10.0,South,12.7,-,N/A,,Mostly Cloudy,180,2012-10-22 18:24:00
1:49 PM,82.4,66.2,58,30.01,10.0,South,9.2,-,N/A,,Scattered Clouds,190,2012-10-22 18:49:00
1:53 PM,82.9,66.9,58,29.99,10.0,SSW,10.4,-,N/A,,Scattered Clouds,200,2012-10-22 18:53:00
2:53 PM,82.9,66.9,58,29.97,10.0,South,10.4,-,N/A,,Mostly Cloudy,170,2012-10-22 19:53:00
3:53 PM,82.0,66.9,60,29.97,10.0,South,8.1,-,N/A,,Partly Cloudy,170,2012-10-22 20:53:00
4:53 PM,81.0,66.9,62,29.96,10.0,South,8.1,-,N/A,,Scattered Clouds,180,2012-10-22 21:53:00
5:53 PM,80.1,68.0,67,29.96,10.0,SSE,5.8,-,N/A,,Mostly Cloudy,150,2012-10-22 22:53:00
6:53 PM,78.1,68.0,71,29.96,10.0,SSE,4.6,-,N/A,,Overcast,160,2012-10-22 23:53:00
8:53 PM,75.9,66.0,71,29.95,10.0,SSE,10.4,-,N/A,,Clear,150,2012-10-23 01:53:00
9:53 PM,75.0,66.0,73,29.95,10.0,SSE,11.5,-,N/A,,Clear,150,2012-10-23 02:53:00
10:53 PM,73.0,64.9,76,29.96,10.0,SSE,8.1,-,N/A,,Clear,160,2012-10-23 03:53:00
11:53 PM,72.0,64.9,78,29.96,10.0,South,10.4,-,N/A,,Clear,180,2012-10-23 04:53:00